Tracking 28790 objects as of 19-Apr-2024
HD Live streaming from Space Station
objects crossing your sky now

SL-16 R/B DEB

Track SL-16 R/B DEB now!
10-day predictions


NORAD ID: 39707
Int'l Code: 1992-093JX
Perigee: 754.3 km
Apogee: 898.8 km
Inclination: 71.1 °
Period: 101.3 minutes
Semi major axis: 7197 km
RCS: Unknown
Launch date: December 25, 1992
Source: Commonwealth of Independent States (former USSR) (CIS)
Launch site: TYURATAM MISSILE AND SPACE COMPLEX (TTMTR)

Note: This is SATELLITE DEBRIS
Your satellite tracking list
Your tracking list is empty




NASA's NSSDC Master Catalog

Two Line Element Set (TLE):
1 39707U 92093JX  24109.19013065  .00008883  00000-0  38513-2 0  9999
2 39707  71.1141  56.1490 0100435 289.5710  69.4594 14.21757266517138
Source of the keplerian elements: AFSPC